Time,TemperatureF,DewpointF,PressureIn,WindDirection,WindDirectionDegrees,WindSpeedMPH,WindSpeedGustMPH,Humidity,HourlyPrecipIn,Conditions,Clouds,dailyrainin,SoftwareType,DateUTC
2013-01-14 00:00:00,39.9,28.0,30.13,NNE,19,3.0,12.0,62,0.00,,SKC,0.00,VWS V14.01,2013-01-14 06:00:00,
2013-01-14 00:03:00,39.8,27.9,30.14,NNE,17,0.0,9.0,62,0.00,,SKC,0.00,VWS V14.01,2013-01-14 06:03:00,
2013-01-14 00:08:00,39.7,27.8,30.15,North,11,4.0,13.0,62,0.00,,SKC,0.00,VWS V14.01,2013-01-14 06:08:00,
2013-01-14 00:10:00,39.7,27.8,30.15,NNE,18,0.0,9.0,62,0.00,,SKC,0.00,VWS V14.01,2013-01-14 06:10:00,
2013-01-14 00:13:00,39.6,28.1,30.15,NNE,22,5.0,13.0,63,0.00,,SKC,0.00,VWS V14.01,2013-01-14 06:13:00,
2013-01-14 00:18:00,39.5,28.0,30.15,NNE,19,0.0,0.0,63,0.00,,SKC,0.00,VWS V14.01,2013-01-14 06:18:00,
2013-01-14 00:20:00,39.5,28.0,30.15,NNE,19,0.0,13.0,63,0.00,,SKC,0.00,VWS V14.01,2013-01-14 06:20:00,
2013-01-14 00:23:00,39.4,27.9,30.15,North,9,9.0,11.0,63,0.00,,SKC,0.00,VWS V14.01,2013-01-14 06:23:00,
2013-01-14 00:28:00,39.3,27.8,30.15,NNE,23,7.0,7.0,63,0.00,,SKC,0.00,VWS V14.01,2013-01-14 06:28:00,
2013-01-14 00:30:00,39.3,27.8,30.15,North,10,4.0,12.0,63,0.00,,SKC,0.00,VWS V14.01,2013-01-14 06:30:00,
2013-01-14 00:33:00,39.3,27.8,30.15,NNE,13,4.0,10.0,63,0.00,,SKC,0.00,VWS V14.01,2013-01-14 06:33:00,
2013-01-14 00:38:00,39.3,27.8,30.15,North,5,0.0,7.0,63,0.00,,SKC,0.00,VWS V14.01,2013-01-14 06:38:00,
2013-01-14 00:40:00,39.2,27.7,30.15,NNE,13,0.0,10.0,63,0.00,,SKC,0.00,VWS V14.01,2013-01-14 06:40:00,
2013-01-14 00:43:00,39.1,27.6,30.16,North,11,0.0,11.0,63,0.00,,SKC,0.00,VWS V14.01,2013-01-14 06:43:00,
2013-01-14 00:48:00,39.0,27.5,30.16,NNE,12,3.0,11.0,63,0.00,,SKC,0.00,VWS V14.01,2013-01-14 06:48:00,
2013-01-14 00:50:00,39.1,27.6,30.16,NNE,14,6.0,11.0,63,0.00,,SKC,0.00,VWS V14.01,2013-01-14 06:50:00,
2013-01-14 00:53:00,38.8,27.3,30.16,North,9,0.0,11.0,63,0.00,,SKC,0.00,VWS V14.01,2013-01-14 06:53:00,
2013-01-14 00:58:00,38.8,27.7,30.16,North,5,2.0,12.0,64,0.00,,SKC,0.00,VWS V14.01,2013-01-14 06:58:00,
2013-01-14 01:00:00,38.8,27.7,30.15,North,9,0.0,11.0,64,0.00,,SKC,0.00,VWS V14.01,2013-01-14 07:00:00,
2013-01-14 01:03:00,38.7,27.2,30.16,North,5,0.0,12.0,63,0.00,,SKC,0.00,VWS V14.01,2013-01-14 07:03:00,
2013-01-14 01:08:00,38.6,27.1,30.17,North,11,0.0,5.0,63,0.00,,SKC,0.00,VWS V14.01,2013-01-14 07:08:00,
2013-01-14 01:10:00,38.6,27.1,30.16,North,11,4.0,12.0,63,0.00,,SKC,0.00,VWS V14.01,2013-01-14 07:10:00,
2013-01-14 01:13:00,38.5,27.0,30.17,North,5,0.0,9.0,63,0.00,,SKC,0.00,VWS V14.01,2013-01-14 07:13:00,
2013-01-14 01:18:00,38.4,26.9,30.17,North,9,3.0,11.0,63,0.00,,SKC,0.00,VWS V14.01,2013-01-14 07:18:00,
2013-01-14 01:20:00,38.4,26.9,30.17,North,5,6.0,12.0,63,0.00,,SKC,0.00,VWS V14.01,2013-01-14 07:20:00,
2013-01-14 01:23:00,38.3,26.8,30.17,NNE,14,2.0,11.0,63,0.00,,SKC,0.00,VWS V14.01,2013-01-14 07:23:00,
2013-01-14 01:28:00,38.3,26.8,30.17,NNE,15,0.0,8.0,63,0.00,,SKC,0.00,VWS V14.01,2013-01-14 07:28:00,
2013-01-14 01:30:00,38.3,26.8,30.17,North,10,5.0,12.0,63,0.00,,SKC,0.00,VWS V14.01,2013-01-14 07:30:00,
2013-01-14 01:33:00,38.2,26.7,30.17,NNE,12,7.0,12.0,63,0.00,,SKC,0.00,VWS V14.01,2013-01-14 07:33:00,
2013-01-14 01:38:00,38.2,26.7,30.16,North,5,1.0,7.0,63,0.00,,SKC,0.00,VWS V14.01,2013-01-14 07:38:00,
2013-01-14 01:40:00,38.2,26.7,30.17,North,9,1.0,12.0,63,0.00,,SKC,0.00,VWS V14.01,2013-01-14 07:40:00,
2013-01-14 01:43:00,38.1,26.6,30.16,NNE,14,10.0,16.0,63,0.00,,SKC,0.00,VWS V14.01,2013-01-14 07:43:00,
2013-01-14 01:48:00,38.1,26.6,30.16,North,5,9.0,13.0,63,0.00,,SKC,0.00,VWS V14.01,2013-01-14 07:48:00,
2013-01-14 01:50:00,38.1,26.6,30.17,NNE,14,13.0,16.0,63,0.00,,SKC,0.00,VWS V14.01,2013-01-14 07:50:00,
2013-01-14 01:53:00,38.2,26.3,30.16,NNW,341,4.0,13.0,62,0.00,,SKC,0.00,VWS V14.01,2013-01-14 07:53:00,
2013-01-14 01:58:00,38.2,26.3,30.17,North,5,2.0,9.0,62,0.00,,SKC,0.00,VWS V14.01,2013-01-14 07:58:00,
2013-01-14 02:00:00,38.2,26.7,30.16,NNE,12,2.0,13.0,63,0.00,,SKC,0.00,VWS V14.01,2013-01-14 08:00:00,
2013-01-14 02:03:00,38.1,26.2,30.17,NNE,15,6.0,11.0,62,0.00,,SKC,0.00,VWS V14.01,2013-01-14 08:03:00,
2013-01-14 02:08:00,38.1,26.2,30.17,North,355,0.0,9.0,62,0.00,,SKC,0.00,VWS V14.01,2013-01-14 08:08:00,
2013-01-14 02:10:00,38.1,26.2,30.17,North,355,5.0,13.0,62,0.00,,SKC,0.00,VWS V14.01,2013-01-14 08:10:00,
2013-01-14 02:13:00,38.2,26.3,30.17,North,355,0.0,9.0,62,0.00,,SKC,0.00,VWS V14.01,2013-01-14 08:13:00,
2013-01-14 02:18:00,38.2,26.3,30.17,North,360,0.0,9.0,62,0.00,,SKC,0.00,VWS V14.01,2013-01-14 08:18:00,
2013-01-14 02:20:00,38.2,26.3,30.18,North,5,0.0,11.0,62,0.00,,SKC,0.00,VWS V14.01,2013-01-14 08:20:00,
2013-01-14 02:23:00,38.1,25.9,30.17,North,5,6.0,12.0,61,0.00,,SKC,0.00,VWS V14.01,2013-01-14 08:23:00,
2013-01-14 02:28:00,38.1,25.9,30.18,North,355,4.0,10.0,61,0.00,,SKC,0.00,VWS V14.01,2013-01-14 08:28:00,
2013-01-14 02:30:00,38.1,25.9,30.17,North,360,1.0,12.0,61,0.00,,SKC,0.00,VWS V14.01,2013-01-14 08:30:00,
2013-01-14 02:33:00,38.0,25.8,30.17,North,9,4.0,11.0,61,0.00,,SKC,0.00,VWS V14.01,2013-01-14 08:33:00,
2013-01-14 02:38:00,38.0,26.1,30.17,North,360,8.0,9.0,62,0.00,,SKC,0.00,VWS V14.01,2013-01-14 08:38:00,
2013-01-14 02:40:00,38.0,26.1,30.17,North,360,0.0,11.0,62,0.00,,SKC,0.00,VWS V14.01,2013-01-14 08:40:00,
2013-01-14 02:43:00,38.0,26.5,30.17,North,5,6.0,13.0,63,0.00,,SKC,0.00,VWS V14.01,2013-01-14 08:43:00,
2013-01-14 02:48:00,37.8,26.4,30.17,North,355,0.0,10.0,63,0.00,,SKC,0.00,VWS V14.01,2013-01-14 08:48:00,
2013-01-14 02:50:00,37.8,26.4,30.17,North,9,1.0,14.0,63,0.00,,SKC,0.00,VWS V14.01,2013-01-14 08:50:00,
2013-01-14 02:53:00,37.7,26.6,30.18,NNE,19,9.0,11.0,64,0.00,,SKC,0.00,VWS V14.01,2013-01-14 08:53:00,
2013-01-14 02:58:00,37.7,25.9,30.17,North,360,9.0,17.0,62,0.00,,SKC,0.00,VWS V14.01,2013-01-14 08:58:00,
2013-01-14 03:00:00,37.7,25.9,30.18,North,5,0.0,13.0,62,0.00,,SKC,0.00,VWS V14.01,2013-01-14 09:00:00,
2013-01-14 03:03:00,37.6,25.8,30.17,North,355,13.0,17.0,62,0.00,,SKC,0.00,VWS V14.01,2013-01-14 09:03:00,
2013-01-14 03:08:00,37.6,25.8,30.17,NNE,16,3.0,10.0,62,0.00,,SKC,0.00,VWS V14.01,2013-01-14 09:08:00,
2013-01-14 03:10:00,37.6,25.8,30.18,North,351,8.0,17.0,62,0.00,,SKC,0.00,VWS V14.01,2013-01-14 09:10:00,
2013-01-14 03:13:00,37.5,25.7,30.17,North,355,6.0,15.0,62,0.00,,SKC,0.00,VWS V14.01,2013-01-14 09:13:00,
2013-01-14 03:18:00,37.5,25.7,30.17,North,360,3.0,3.0,62,0.00,,SKC,0.00,VWS V14.01,2013-01-14 09:18:00,
2013-01-14 03:20:00,37.5,25.7,30.17,North,355,0.0,15.0,62,0.00,,SKC,0.00,VWS V14.01,2013-01-14 09:20:00,
2013-01-14 03:23:00,37.5,25.7,30.17,NNW,345,0.0,12.0,62,0.00,,SKC,0.00,VWS V14.01,2013-01-14 09:23:00,
2013-01-14 03:28:00,37.5,25.7,30.17,NNW,346,10.0,10.0,62,0.00,,SKC,0.00,VWS V14.01,2013-01-14 09:28:00,
2013-01-14 03:30:00,37.6,25.8,30.17,North,5,8.0,14.0,62,0.00,,SKC,0.00,VWS V14.01,2013-01-14 09:30:00,
2013-01-14 03:33:00,37.5,25.3,30.16,North,11,0.0,14.0,61,0.00,,SKC,0.00,VWS V14.01,2013-01-14 09:33:00,
2013-01-14 03:38:00,37.5,25.3,30.17,NNE,13,4.0,12.0,61,0.00,,SKC,0.00,VWS V14.01,2013-01-14 09:38:00,
2013-01-14 03:40:00,37.5,25.3,30.16,North,5,8.0,14.0,61,0.00,,SKC,0.00,VWS V14.01,2013-01-14 09:40:00,
2013-01-14 03:43:00,37.4,25.2,30.17,North,5,8.0,15.0,61,0.00,,SKC,0.00,VWS V14.01,2013-01-14 09:43:00,
2013-01-14 03:48:00,37.4,25.2,30.17,North,360,11.0,13.0,61,0.00,,SKC,0.00,VWS V14.01,2013-01-14 09:48:00,
2013-01-14 03:50:00,37.4,25.2,30.17,North,11,4.0,18.0,61,0.00,,SKC,0.00,VWS V14.01,2013-01-14 09:50:00,
2013-01-14 03:53:00,37.3,25.1,30.17,North,360,4.0,13.0,61,0.00,,SKC,0.00,VWS V14.01,2013-01-14 09:53:00,
2013-01-14 03:58:00,37.2,25.0,30.16,NNE,14,9.0,9.0,61,0.00,,SKC,0.00,VWS V14.01,2013-01-14 09:58:00,
2013-01-14 04:00:00,37.3,25.1,30.16,North,360,8.0,13.0,61,0.00,,SKC,0.00,VWS V14.01,2013-01-14 10:00:00,
2013-01-14 04:03:00,37.2,25.0,30.16,North,355,4.0,13.0,61,0.00,,SKC,0.00,VWS V14.01,2013-01-14 10:03:00,
2013-01-14 04:08:00,37.2,25.0,30.16,North,11,7.0,14.0,61,0.00,,SKC,0.00,VWS V14.01,2013-01-14 10:08:00,
2013-01-14 04:10:00,37.2,25.0,30.16,North,11,6.0,16.0,61,0.00,,SKC,0.00,VWS V14.01,2013-01-14 10:10:00,
2013-01-14 04:13:00,37.1,24.9,30.16,North,350,8.0,15.0,61,0.00,,SKC,0.00,VWS V14.01,2013-01-14 10:13:00,
2013-01-14 04:18:00,37.1,24.9,30.16,North,355,11.0,16.0,61,0.00,,SKC,0.00,VWS V14.01,2013-01-14 10:18:00,
2013-01-14 04:20:00,37.1,24.9,30.16,NNE,16,11.0,15.0,61,0.00,,SKC,0.00,VWS V14.01,2013-01-14 10:20:00,
2013-01-14 04:23:00,37.0,24.8,30.16,North,360,7.0,16.0,61,0.00,,SKC,0.00,VWS V14.01,2013-01-14 10:23:00,
2013-01-14 04:28:00,37.0,25.2,30.16,North,351,1.0,11.0,62,0.00,,SKC,0.00,VWS V14.01,2013-01-14 10:28:00,
2013-01-14 04:30:00,37.0,25.2,30.16,North,355,5.0,16.0,62,0.00,,SKC,0.00,VWS V14.01,2013-01-14 10:30:00,
2013-01-14 04:33:00,36.9,25.1,30.16,NNW,343,5.0,16.0,62,0.00,,SKC,0.00,VWS V14.01,2013-01-14 10:33:00,
2013-01-14 04:38:00,36.9,24.7,30.15,North,11,11.0,12.0,61,0.00,,SKC,0.00,VWS V14.01,2013-01-14 10:38:00,
2013-01-14 04:40:00,36.9,24.7,30.15,North,355,9.0,16.0,61,0.00,,SKC,0.00,VWS V14.01,2013-01-14 10:40:00,
2013-01-14 04:43:00,36.9,25.1,30.15,North,11,0.0,13.0,62,0.00,,SKC,0.00,VWS V14.01,2013-01-14 10:43:00,
2013-01-14 04:48:00,36.8,25.0,30.15,North,5,7.0,14.0,62,0.00,,SKC,0.00,VWS V14.01,2013-01-14 10:48:00,
2013-01-14 04:50:00,36.8,25.0,30.15,NNW,346,6.0,13.0,62,0.00,,SKC,0.00,VWS V14.01,2013-01-14 10:50:00,
2013-01-14 04:53:00,36.8,25.0,30.15,North,9,9.0,14.0,62,0.00,,SKC,0.00,VWS V14.01,2013-01-14 10:53:00,
2013-01-14 04:58:00,36.8,25.0,30.16,NNW,344,3.0,15.0,62,0.00,,SKC,0.00,VWS V14.01,2013-01-14 10:58:00,
2013-01-14 05:00:00,36.8,25.0,30.15,North,360,0.0,14.0,62,0.00,,SKC,0.00,VWS V14.01,2013-01-14 11:00:00,
2013-01-14 05:03:00,36.8,25.0,30.16,North,355,6.0,15.0,62,0.00,,SKC,0.00,VWS V14.01,2013-01-14 11:03:00,
2013-01-14 05:08:00,36.7,24.9,30.16,North,10,8.0,8.0,62,0.00,,SKC,0.00,VWS V14.01,2013-01-14 11:08:00,
2013-01-14 05:10:00,36.7,24.9,30.16,NNE,12,8.0,15.0,62,0.00,,SKC,0.00,VWS V14.01,2013-01-14 11:10:00,
2013-01-14 05:13:00,36.6,24.8,30.15,North,360,10.0,15.0,62,0.00,,SKC,0.00,VWS V14.01,2013-01-14 11:13:00,
2013-01-14 05:18:00,36.7,25.3,30.16,North,5,14.0,14.0,63,0.00,,SKC,0.00,VWS V14.01,2013-01-14 11:18:00,
2013-01-14 05:20:00,36.6,25.2,30.16,NNW,333,9.0,15.0,63,0.00,,SKC,0.00,VWS V14.01,2013-01-14 11:20:00,
2013-01-14 05:23:00,36.7,25.3,30.16,NNW,348,0.0,14.0,63,0.00,,SKC,0.00,VWS V14.01,2013-01-14 11:23:00,
2013-01-14 05:28:00,36.7,25.3,30.16,North,355,6.0,13.0,63,0.00,,SKC,0.00,VWS V14.01,2013-01-14 11:28:00,
2013-01-14 05:30:00,36.7,25.3,30.16,North,360,6.0,14.0,63,0.00,,SKC,0.00,VWS V14.01,2013-01-14 11:30:00,
2013-01-14 05:33:00,36.6,25.2,30.16,North,355,4.0,13.0,63,0.00,,SKC,0.00,VWS V14.01,2013-01-14 11:33:00,
2013-01-14 05:38:00,36.6,25.6,30.16,North,360,3.0,12.0,64,0.00,,SKC,0.00,VWS V14.01,2013-01-14 11:38:00,
2013-01-14 05:40:00,36.6,25.6,30.16,NNE,13,12.0,13.0,64,0.00,,SKC,0.00,VWS V14.01,2013-01-14 11:40:00,
2013-01-14 05:43:00,36.6,25.6,30.16,North,351,8.0,12.0,64,0.00,,SKC,0.00,VWS V14.01,2013-01-14 11:43:00,
2013-01-14 05:48:00,36.6,25.6,30.16,North,355,0.0,8.0,64,0.00,,SKC,0.00,VWS V14.01,2013-01-14 11:48:00,
2013-01-14 05:50:00,36.6,25.6,30.16,North,355,6.0,13.0,64,0.00,,SKC,0.00,VWS V14.01,2013-01-14 11:50:00,
2013-01-14 05:53:00,36.6,25.6,30.16,NNE,20,4.0,12.0,64,0.00,,SKC,0.00,VWS V14.01,2013-01-14 11:53:00,
2013-01-14 05:58:00,36.5,25.5,30.16,North,355,11.0,14.0,64,0.00,,SKC,0.00,VWS V14.01,2013-01-14 11:58:00,
2013-01-14 06:00:00,36.6,25.6,30.16,NNE,19,6.0,13.0,64,0.00,,SKC,0.00,VWS V14.01,2013-01-14 12:00:00,
2013-01-14 06:03:00,36.5,25.9,30.16,North,355,8.0,14.0,65,0.00,,SKC,0.00,VWS V14.01,2013-01-14 12:03:00,
2013-01-14 06:08:00,36.6,26.0,30.16,North,355,8.0,11.0,65,0.00,,SKC,0.00,VWS V14.01,2013-01-14 12:08:00,
2013-01-14 06:10:00,36.6,26.0,30.16,North,5,9.0,15.0,65,0.00,,SKC,0.00,VWS V14.01,2013-01-14 12:10:00,
2013-01-14 06:13:00,36.5,25.9,30.17,North,5,6.0,11.0,65,0.00,,SKC,0.00,VWS V14.01,2013-01-14 12:13:00,
2013-01-14 06:18:00,36.5,25.9,30.17,North,5,5.0,11.0,65,0.00,,SKC,0.00,VWS V14.01,2013-01-14 12:18:00,
2013-01-14 06:20:00,36.5,25.9,30.17,NNW,341,8.0,15.0,65,0.00,,SKC,0.00,VWS V14.01,2013-01-14 12:20:00,
2013-01-14 06:23:00,36.5,25.9,30.17,North,355,6.0,12.0,65,0.00,,SKC,0.00,VWS V14.01,2013-01-14 12:23:00,
2013-01-14 06:28:00,36.6,26.0,30.17,North,355,0.0,10.0,65,0.00,,SKC,0.00,VWS V14.01,2013-01-14 12:28:00,
2013-01-14 06:30:00,36.6,26.0,30.18,North,355,0.0,12.0,65,0.00,,SKC,0.00,VWS V14.01,2013-01-14 12:30:00,
2013-01-14 06:33:00,36.5,25.9,30.17,North,5,5.0,11.0,65,0.00,,SKC,0.00,VWS V14.01,2013-01-14 12:33:00,
2013-01-14 06:38:00,36.5,26.2,30.18,North,5,0.0,8.0,66,0.00,,SKC,0.00,VWS V14.01,2013-01-14 12:38:00,
2013-01-14 06:40:00,36.5,26.2,30.18,North,5,8.0,11.0,66,0.00,,SKC,0.00,VWS V14.01,2013-01-14 12:40:00,
2013-01-14 06:43:00,36.5,26.2,30.18,North,5,7.0,8.0,66,0.00,,SKC,0.00,VWS V14.01,2013-01-14 12:43:00,
2013-01-14 06:48:00,36.6,26.3,30.19,NNE,13,0.0,7.0,66,0.00,,SKC,0.00,VWS V14.01,2013-01-14 12:48:00,
2013-01-14 06:50:00,36.6,26.3,30.18,North,5,7.0,12.0,66,0.00,,SKC,0.00,VWS V14.01,2013-01-14 12:50:00,
2013-01-14 06:53:00,36.5,26.2,30.18,North,360,6.0,11.0,66,0.00,,SKC,0.00,VWS V14.01,2013-01-14 12:53:00,
2013-01-14 06:58:00,36.4,26.1,30.19,North,5,0.0,9.0,66,0.00,,SKC,0.00,VWS V14.01,2013-01-14 12:58:00,
2013-01-14 07:00:00,36.4,26.1,30.19,North,5,4.0,11.0,66,0.00,,SKC,0.00,VWS V14.01,2013-01-14 13:00:00,
2013-01-14 07:03:00,36.4,26.1,30.19,North,360,3.0,13.0,66,0.00,,SKC,0.00,VWS V14.01,2013-01-14 13:03:00,
2013-01-14 07:08:00,36.4,26.1,30.19,North,5,4.0,9.0,66,0.00,,SKC,0.00,VWS V14.01,2013-01-14 13:08:00,
2013-01-14 07:10:00,36.5,26.2,30.19,North,5,5.0,13.0,66,0.00,,SKC,0.00,VWS V14.01,2013-01-14 13:10:00,
2013-01-14 07:13:00,36.4,26.1,30.20,North,360,4.0,10.0,66,0.00,,SKC,0.00,VWS V14.01,2013-01-14 13:13:00,
2013-01-14 07:18:00,36.4,26.1,30.19,NNE,13,1.0,12.0,66,0.00,,SKC,0.00,VWS V14.01,2013-01-14 13:18:00,
2013-01-14 07:20:00,36.4,26.1,30.19,North,5,8.0,12.0,66,0.00,,SKC,0.00,VWS V14.01,2013-01-14 13:20:00,
2013-01-14 07:23:00,36.4,26.1,30.20,NNE,13,9.0,12.0,66,0.00,,SKC,0.00,VWS V14.01,2013-01-14 13:23:00,
2013-01-14 07:28:00,36.4,26.1,30.20,NNE,21,0.0,7.0,66,0.00,,SKC,0.00,VWS V14.01,2013-01-14 13:28:00,
2013-01-14 07:30:00,36.4,26.1,30.19,NNE,19,4.0,12.0,66,0.00,,SKC,0.00,VWS V14.01,2013-01-14 13:30:00,
2013-01-14 07:33:00,36.3,26.4,30.20,North,360,8.0,15.0,67,0.00,,SKC,0.00,VWS V14.01,2013-01-14 13:33:00,
2013-01-14 07:38:00,36.3,26.4,30.20,NNE,29,0.0,11.0,67,0.00,,SKC,0.00,VWS V14.01,2013-01-14 13:38:00,
2013-01-14 07:40:00,36.3,26.4,30.20,NE,39,5.0,15.0,67,0.00,,SKC,0.00,VWS V14.01,2013-01-14 13:40:00,
2013-01-14 07:43:00,36.3,26.4,30.20,NNE,23,0.0,11.0,67,0.00,,SKC,0.00,VWS V14.01,2013-01-14 13:43:00,
2013-01-14 07:48:00,36.2,26.3,30.21,NNE,21,8.0,9.0,67,0.00,,SKC,0.00,VWS V14.01,2013-01-14 13:48:00,
2013-01-14 07:50:00,36.2,26.3,30.20,NNE,17,0.0,11.0,67,0.00,,SKC,0.00,VWS V14.01,2013-01-14 13:50:00,
2013-01-14 07:53:00,36.1,26.6,30.21,NNE,22,0.0,10.0,68,0.00,,SKC,0.00,VWS V14.01,2013-01-14 13:53:00,
2013-01-14 07:58:00,36.0,26.5,30.21,NNE,19,5.0,9.0,68,0.00,,SKC,0.00,VWS V14.01,2013-01-14 13:58:00,
2013-01-14 08:00:00,36.1,26.6,30.21,NNE,18,0.0,10.0,68,0.00,,SKC,0.00,VWS V14.01,2013-01-14 14:00:00,
2013-01-14 08:03:00,35.9,26.7,30.21,NNE,15,3.0,12.0,69,0.00,,SKC,0.00,VWS V14.01,2013-01-14 14:03:00,
2013-01-14 08:08:00,35.9,26.7,30.22,NNE,14,0.0,6.0,69,0.00,,SKC,0.00,VWS V14.01,2013-01-14 14:08:00,
2013-01-14 08:10:00,35.9,26.7,30.21,NNE,14,6.0,12.0,69,0.00,,SKC,0.00,VWS V14.01,2013-01-14 14:10:00,
2013-01-14 08:13:00,35.9,26.7,30.22,NNE,15,0.0,8.0,69,0.00,,SKC,0.00,VWS V14.01,2013-01-14 14:13:00,
2013-01-14 08:18:00,35.9,27.1,30.21,NNE,22,1.0,5.0,70,0.00,,SKC,0.00,VWS V14.01,2013-01-14 14:18:00,
2013-01-14 08:20:00,35.9,27.1,30.21,NNE,21,5.0,8.0,70,0.00,,SKC,0.00,VWS V14.01,2013-01-14 14:20:00,
2013-01-14 08:23:00,36.0,27.2,30.22,NNE,21,0.0,10.0,70,0.00,,SKC,0.00,VWS V14.01,2013-01-14 14:23:00,
2013-01-14 08:28:00,36.0,27.2,30.22,NNE,25,0.0,6.0,70,0.00,,SKC,0.00,VWS V14.01,2013-01-14 14:28:00,
2013-01-14 08:30:00,36.0,27.2,30.22,NNE,21,0.0,10.0,70,0.00,,SKC,0.00,VWS V14.01,2013-01-14 14:30:00,
2013-01-14 08:33:00,36.0,27.2,30.22,NNE,24,0.0,6.0,70,0.00,,SKC,0.00,VWS V14.01,2013-01-14 14:33:00,
2013-01-14 08:38:00,36.1,27.3,30.22,NNE,18,8.0,9.0,70,0.00,,SKC,0.00,VWS V14.01,2013-01-14 14:38:00,
2013-01-14 08:40:00,36.1,27.3,30.22,NNE,18,0.0,11.0,70,0.00,,SKC,0.00,VWS V14.01,2013-01-14 14:40:00,
2013-01-14 08:43:00,36.1,27.3,30.22,NNE,19,0.0,9.0,70,0.00,,SKC,0.00,VWS V14.01,2013-01-14 14:43:00,
2013-01-14 08:48:00,36.2,27.4,30.22,NNE,22,2.0,8.0,70,0.00,,SKC,0.00,VWS V14.01,2013-01-14 14:48:00,
2013-01-14 08:50:00,36.2,27.4,30.22,North,9,6.0,13.0,70,0.00,,SKC,0.00,VWS V14.01,2013-01-14 14:50:00,
2013-01-14 08:53:00,36.3,27.5,30.22,NNE,24,3.0,11.0,70,0.00,,SKC,0.00,VWS V14.01,2013-01-14 14:53:00,
2013-01-14 08:58:00,36.5,27.7,30.22,NE,36,1.0,7.0,70,0.00,,SKC,0.00,VWS V14.01,2013-01-14 14:58:00,
2013-01-14 09:00:00,36.4,27.6,30.22,NNE,31,0.0,13.0,70,0.00,,SKC,0.00,VWS V14.01,2013-01-14 15:00:00,
2013-01-14 09:03:00,36.7,27.9,30.22,NNE,18,6.0,14.0,70,0.00,,SKC,0.00,VWS V14.01,2013-01-14 15:03:00,
2013-01-14 09:08:00,36.8,28.0,30.22,NNE,20,2.0,10.0,70,0.00,,SKC,0.00,VWS V14.01,2013-01-14 15:08:00,
2013-01-14 09:10:00,36.8,27.6,30.22,NNE,17,0.0,16.0,69,0.00,,SKC,0.00,VWS V14.01,2013-01-14 15:10:00,
2013-01-14 09:13:00,36.9,28.0,30.23,NNE,23,3.0,13.0,70,0.00,,SKC,0.00,VWS V14.01,2013-01-14 15:13:00,
2013-01-14 09:18:00,37.0,28.1,30.22,NNE,25,0.0,5.0,70,0.00,,SKC,0.00,VWS V14.01,2013-01-14 15:18:00,
2013-01-14 09:20:00,37.0,28.1,30.22,NNE,25,5.0,13.0,70,0.00,,SKC,0.00,VWS V14.01,2013-01-14 15:20:00,
2013-01-14 09:23:00,37.2,28.3,30.22,NNE,27,0.0,12.0,70,0.00,,SKC,0.00,VWS V14.01,2013-01-14 15:23:00,
2013-01-14 09:28:00,37.5,28.3,30.22,NNE,19,0.0,6.0,69,0.00,,SKC,0.00,VWS V14.01,2013-01-14 15:28:00,
2013-01-14 09:30:00,37.5,28.6,30.22,NNE,19,6.0,12.0,70,0.00,,SKC,0.00,VWS V14.01,2013-01-14 15:30:00,
2013-01-14 09:33:00,38.0,28.8,30.23,NE,36,2.0,11.0,69,0.00,,SKC,0.00,VWS V14.01,2013-01-14 15:33:00,
2013-01-14 09:38:00,38.4,28.8,30.22,NNE,18,0.0,5.0,68,0.00,,SKC,0.00,VWS V14.01,2013-01-14 15:38:00,
2013-01-14 09:40:00,38.3,28.7,30.22,NNE,19,0.0,12.0,68,0.00,,SKC,0.00,VWS V14.01,2013-01-14 15:40:00,
2013-01-14 09:43:00,38.7,29.1,30.22,NNE,30,1.0,12.0,68,0.00,,SKC,0.00,VWS V14.01,2013-01-14 15:43:00,
2013-01-14 09:48:00,39.1,29.1,30.22,NNE,21,0.0,10.0,67,0.00,,SKC,0.00,VWS V14.01,2013-01-14 15:48:00,
2013-01-14 09:50:00,39.0,29.0,30.22,NNE,26,10.0,12.0,67,0.00,,SKC,0.00,VWS V14.01,2013-01-14 15:50:00,
2013-01-14 09:53:00,39.2,28.8,30.23,NE,40,3.0,13.0,66,0.00,,SKC,0.00,VWS V14.01,2013-01-14 15:53:00,
2013-01-14 09:58:00,39.4,29.0,30.23,NNE,22,2.0,12.0,66,0.00,,SKC,0.00,VWS V14.01,2013-01-14 15:58:00,
2013-01-14 10:00:00,39.4,29.0,30.23,NNE,21,6.0,14.0,66,0.00,,SKC,0.00,VWS V14.01,2013-01-14 16:00:00,
2013-01-14 10:03:00,39.6,29.2,30.23,NE,43,7.0,13.0,66,0.00,,SKC,0.00,VWS V14.01,2013-01-14 16:03:00,
2013-01-14 10:08:00,39.8,29.4,30.23,NE,45,6.0,9.0,66,0.00,,SKC,0.00,VWS V14.01,2013-01-14 16:08:00,
2013-01-14 10:10:00,39.8,29.0,30.23,NNE,22,8.0,16.0,65,0.00,,SKC,0.00,VWS V14.01,2013-01-14 16:10:00,
2013-01-14 10:13:00,40.1,29.7,30.23,NNE,28,3.0,11.0,66,0.00,,SKC,0.00,VWS V14.01,2013-01-14 16:13:00,
2013-01-14 10:18:00,40.7,29.5,30.24,NNE,20,2.0,10.0,64,0.00,,SKC,0.00,VWS V14.01,2013-01-14 16:18:00,
2013-01-14 10:20:00,40.6,29.8,30.23,NNE,22,4.0,11.0,65,0.00,,SKC,0.00,VWS V14.01,2013-01-14 16:20:00,
2013-01-14 10:23:00,40.9,29.3,30.24,NE,45,6.0,14.0,63,0.00,,SKC,0.00,VWS V14.01,2013-01-14 16:23:00,
2013-01-14 10:28:00,41.1,29.5,30.24,NNE,23,8.0,8.0,63,0.00,,SKC,0.00,VWS V14.01,2013-01-14 16:28:00,
2013-01-14 10:30:00,41.0,29.4,30.24,NNE,29,3.0,14.0,63,0.00,,SKC,0.00,VWS V14.01,2013-01-14 16:30:00,
2013-01-14 10:33:00,41.2,29.6,30.23,NNE,31,7.0,12.0,63,0.00,,SKC,0.00,VWS V14.01,2013-01-14 16:33:00,
2013-01-14 10:38:00,41.6,29.6,30.23,NNE,13,0.0,11.0,62,0.00,,SKC,0.00,VWS V14.01,2013-01-14 16:38:00,
2013-01-14 10:40:00,41.5,29.9,30.24,North,9,9.0,12.0,63,0.00,,SKC,0.00,VWS V14.01,2013-01-14 16:40:00,
2013-01-14 10:42:00,41.7,29.7,30.23,NNE,18,0.0,12.0,62,0.00,,SKC,0.00,VWS V14.01,2013-01-14 16:42:00,
2013-01-14 10:47:00,41.8,29.8,30.23,NNE,15,6.0,8.0,62,0.00,,SKC,0.00,VWS V14.01,2013-01-14 16:47:00,
2013-01-14 10:50:00,41.8,29.8,30.23,NNE,16,0.0,12.0,62,0.00,,SKC,0.00,VWS V14.01,2013-01-14 16:50:00,
2013-01-14 10:52:00,41.9,29.5,30.23,NNE,31,0.0,14.0,61,0.00,,SKC,0.00,VWS V14.01,2013-01-14 16:52:00,
2013-01-14 10:57:00,42.2,29.7,30.22,NNE,30,2.0,9.0,61,0.00,,SKC,0.00,VWS V14.01,2013-01-14 16:57:00,
2013-01-14 11:00:00,42.1,29.6,30.23,NNE,19,5.0,14.0,61,0.00,,SKC,0.00,VWS V14.01,2013-01-14 17:00:00,
2013-01-14 11:02:00,42.7,30.2,30.22,NE,34,3.0,9.0,61,0.00,,SKC,0.00,VWS V14.01,2013-01-14 17:02:00,
2013-01-14 11:07:00,43.4,30.5,30.22,NNE,16,0.0,5.0,60,0.00,,SKC,0.00,VWS V14.01,2013-01-14 17:07:00,
2013-01-14 11:10:00,43.3,30.4,30.22,NNE,16,0.0,11.0,60,0.00,,SKC,0.00,VWS V14.01,2013-01-14 17:10:00,
2013-01-14 11:12:00,44.1,30.7,30.21,NE,48,1.0,9.0,59,0.00,,SKC,0.00,VWS V14.01,2013-01-14 17:12:00,
2013-01-14 11:17:00,44.4,30.1,30.21,NNE,20,7.0,9.0,57,0.00,,SKC,0.00,VWS V14.01,2013-01-14 17:17:00,
2013-01-14 11:20:00,44.4,30.1,30.21,NNE,21,7.0,15.0,57,0.00,,SKC,0.00,VWS V14.01,2013-01-14 17:20:00,
2013-01-14 11:22:00,44.4,30.1,30.20,NE,34,3.0,13.0,57,0.00,,SKC,0.00,VWS V14.01,2013-01-14 17:22:00,
2013-01-14 11:27:00,44.4,30.6,30.20,NNE,20,0.0,1.0,58,0.00,,SKC,0.00,VWS V14.01,2013-01-14 17:27:00,
2013-01-14 11:30:00,44.4,30.6,30.20,NNE,20,0.0,15.0,58,0.00,,SKC,0.00,VWS V14.01,2013-01-14 17:30:00,
2013-01-14 11:32:00,44.7,30.9,30.20,NE,50,3.0,10.0,58,0.00,,SKC,0.00,VWS V14.01,2013-01-14 17:32:00,
2013-01-14 11:37:00,45.5,31.2,30.19,NNE,13,1.0,2.0,57,0.00,,SKC,0.00,VWS V14.01,2013-01-14 17:37:00,
2013-01-14 11:40:00,45.4,31.1,30.19,North,10,0.0,12.0,57,0.00,,SKC,0.00,VWS V14.01,2013-01-14 17:40:00,
2013-01-14 11:42:00,46.1,31.3,30.19,NNE,15,2.0,17.0,56,0.00,,SKC,0.00,VWS V14.01,2013-01-14 17:42:00,
2013-01-14 11:47:00,46.5,30.8,30.19,NNE,30,4.0,9.0,54,0.00,,SKC,0.00,VWS V14.01,2013-01-14 17:47:00,
2013-01-14 11:50:00,46.5,31.2,30.19,NE,44,4.0,17.0,55,0.00,,SKC,0.00,VWS V14.01,2013-01-14 17:50:00,
2013-01-14 11:52:00,46.2,30.9,30.19,NNE,24,1.0,11.0,55,0.00,,SKC,0.00,VWS V14.01,2013-01-14 17:52:00,
2013-01-14 11:57:00,46.4,31.6,30.19,NE,38,3.0,6.0,56,0.00,,SKC,0.00,VWS V14.01,2013-01-14 17:57:00,
2013-01-14 12:00:00,46.4,31.6,30.19,NNE,31,0.0,11.0,56,0.00,,SKC,0.00,VWS V14.01,2013-01-14 18:00:00,
2013-01-14 12:02:00,46.9,31.6,30.18,NE,55,2.0,8.0,55,0.00,,SKC,0.00,VWS V14.01,2013-01-14 18:02:00,
2013-01-14 12:07:00,47.3,31.5,30.18,NE,38,0.0,1.0,54,0.00,,SKC,0.00,VWS V14.01,2013-01-14 18:07:00,
2013-01-14 12:10:00,47.2,31.4,30.18,NE,38,1.0,8.0,54,0.00,,SKC,0.00,VWS V14.01,2013-01-14 18:10:00,
2013-01-14 12:12:00,47.5,31.2,30.18,NE,40,2.0,9.0,53,0.00,,SKC,0.00,VWS V14.01,2013-01-14 18:12:00,
2013-01-14 12:17:00,47.7,31.4,30.18,North,351,8.0,12.0,53,0.00,,SKC,0.00,VWS V14.01,2013-01-14 18:17:00,
2013-01-14 12:20:00,47.7,31.9,30.18,NNE,18,2.0,11.0,54,0.00,,SKC,0.00,VWS V14.01,2013-01-14 18:20:00,
2013-01-14 12:22:00,48.0,31.7,30.17,NNE,16,1.0,12.0,53,0.00,,SKC,0.00,VWS V14.01,2013-01-14 18:22:00,
2013-01-14 12:27:00,48.3,32.0,30.17,NE,49,5.0,7.0,53,0.00,,SKC,0.00,VWS V14.01,2013-01-14 18:27:00,
2013-01-14 12:30:00,48.3,32.0,30.17,NE,38,5.0,12.0,53,0.00,,SKC,0.00,VWS V14.01,2013-01-14 18:30:00,
2013-01-14 12:32:00,48.6,32.3,30.17,NNE,25,0.0,10.0,53,0.00,,SKC,0.00,VWS V14.01,2013-01-14 18:32:00,
2013-01-14 12:37:00,48.8,32.0,30.16,NE,37,1.0,9.0,52,0.00,,SKC,0.00,VWS V14.01,2013-01-14 18:37:00,
2013-01-14 12:40:00,48.8,32.0,30.16,NE,52,2.0,11.0,52,0.00,,SKC,0.00,VWS V14.01,2013-01-14 18:40:00,
2013-01-14 12:42:00,49.0,32.6,30.15,NE,41,0.0,9.0,53,0.00,,SKC,0.00,VWS V14.01,2013-01-14 18:42:00,
2013-01-14 12:47:00,49.3,32.4,30.15,NE,48,8.0,8.0,52,0.00,,SKC,0.00,VWS V14.01,2013-01-14 18:47:00,
2013-01-14 12:50:00,49.3,32.0,30.15,NE,34,4.0,11.0,51,0.00,,SKC,0.00,VWS V14.01,2013-01-14 18:50:00,
2013-01-14 12:52:00,49.7,32.8,30.15,NE,42,6.0,11.0,52,0.00,,SKC,0.00,VWS V14.01,2013-01-14 18:52:00,
2013-01-14 12:57:00,50.1,32.7,30.15,NE,38,2.0,3.0,51,0.00,,SKC,0.00,VWS V14.01,2013-01-14 18:57:00,
2013-01-14 13:00:00,50.1,32.7,30.15,NE,38,0.0,11.0,51,0.00,,SKC,0.00,VWS V14.01,2013-01-14 19:00:00,
2013-01-14 13:02:00,50.6,33.2,30.14,NE,46,1.0,10.0,51,0.00,,SKC,0.00,VWS V14.01,2013-01-14 19:02:00,
2013-01-14 13:07:00,51.0,33.0,30.14,North,355,0.0,6.0,50,0.00,,SKC,0.00,VWS V14.01,2013-01-14 19:07:00,
2013-01-14 13:10:00,50.9,32.9,30.14,NNW,344,5.0,10.0,50,0.00,,SKC,0.00,VWS V14.01,2013-01-14 19:10:00,
2013-01-14 13:12:00,51.3,33.3,30.14,NNE,22,0.0,9.0,50,0.00,,SKC,0.00,VWS V14.01,2013-01-14 19:12:00,
2013-01-14 13:17:00,51.5,33.0,30.13,NE,49,2.0,4.0,49,0.00,,SKC,0.00,VWS V14.01,2013-01-14 19:17:00,
2013-01-14 13:20:00,51.4,32.9,30.14,NE,38,2.0,9.0,49,0.00,,SKC,0.00,VWS V14.01,2013-01-14 19:20:00,
2013-01-14 13:22:00,51.5,33.0,30.13,NNE,29,8.0,9.0,49,0.00,,SKC,0.00,VWS V14.01,2013-01-14 19:22:00,
2013-01-14 13:27:00,51.7,33.2,30.13,NNE,26,0.0,2.0,49,0.00,,SKC,0.00,VWS V14.01,2013-01-14 19:27:00,
2013-01-14 13:30:00,51.7,33.7,30.13,NNE,26,0.0,9.0,50,0.00,,SKC,0.00,VWS V14.01,2013-01-14 19:30:00,
2013-01-14 13:32:00,52.2,33.6,30.13,NNE,22,3.0,5.0,49,0.00,,SKC,0.00,VWS V14.01,2013-01-14 19:32:00,
2013-01-14 13:37:00,52.6,33.5,30.13,NNE,19,2.0,9.0,48,0.00,,SKC,0.00,VWS V14.01,2013-01-14 19:37:00,
2013-01-14 13:40:00,52.6,33.5,30.13,NNE,22,7.0,10.0,48,0.00,,SKC,0.00,VWS V14.01,2013-01-14 19:40:00,
2013-01-14 13:42:00,52.8,33.7,30.12,NE,39,0.0,11.0,48,0.00,,SKC,0.00,VWS V14.01,2013-01-14 19:42:00,
2013-01-14 13:47:00,53.0,33.8,30.12,NE,35,3.0,6.0,48,0.00,,SKC,0.00,VWS V14.01,2013-01-14 19:47:00,
2013-01-14 13:50:00,53.0,33.8,30.12,North,9,0.0,11.0,48,0.00,,SKC,0.00,VWS V14.01,2013-01-14 19:50:00,
2013-01-14 13:52:00,53.1,33.4,30.12,NE,36,3.0,8.0,47,0.00,,SKC,0.00,VWS V14.01,2013-01-14 19:52:00,
2013-01-14 13:57:00,52.9,33.8,30.12,NNE,22,1.0,5.0,48,0.00,,SKC,0.00,VWS V14.01,2013-01-14 19:57:00,
2013-01-14 14:00:00,52.9,33.8,30.12,NNE,21,5.0,10.0,48,0.00,,SKC,0.00,VWS V14.01,2013-01-14 20:00:00,
2013-01-14 14:02:00,52.7,33.6,30.11,NE,45,7.0,8.0,48,0.00,,SKC,0.00,VWS V14.01,2013-01-14 20:02:00,
2013-01-14 14:07:00,52.6,34.0,30.11,North,360,6.0,10.0,49,0.00,,SKC,0.00,VWS V14.01,2013-01-14 20:07:00,
2013-01-14 14:10:00,52.6,34.0,30.12,NNE,15,8.0,11.0,49,0.00,,SKC,0.00,VWS V14.01,2013-01-14 20:10:00,
2013-01-14 14:12:00,52.6,34.0,30.11,NNE,30,0.0,10.0,49,0.00,,SKC,0.00,VWS V14.01,2013-01-14 20:12:00,
2013-01-14 14:17:00,52.4,33.8,30.11,NNE,26,0.0,2.0,49,0.00,,SKC,0.00,VWS V14.01,2013-01-14 20:17:00,
2013-01-14 14:20:00,52.4,33.8,30.11,NNE,24,0.0,10.0,49,0.00,,SKC,0.00,VWS V14.01,2013-01-14 20:20:00,
2013-01-14 14:22:00,52.3,34.2,30.11,NNE,28,0.0,4.0,50,0.00,,SKC,0.00,VWS V14.01,2013-01-14 20:22:00,
2013-01-14 14:27:00,52.4,34.3,30.11,NNE,22,0.0,3.0,50,0.00,,SKC,0.00,VWS V14.01,2013-01-14 20:27:00,
2013-01-14 14:30:00,52.3,33.7,30.11,NNE,21,0.0,9.0,49,0.00,,SKC,0.00,VWS V14.01,2013-01-14 20:30:00,
2013-01-14 14:32:00,52.4,33.8,30.11,NE,49,3.0,10.0,49,0.00,,SKC,0.00,VWS V14.01,2013-01-14 20:32:00,
2013-01-14 14:37:00,52.2,33.6,30.11,NNE,16,2.0,6.0,49,0.00,,SKC,0.00,VWS V14.01,2013-01-14 20:37:00,
2013-01-14 14:40:00,52.2,33.6,30.11,NNE,22,5.0,10.0,49,0.00,,SKC,0.00,VWS V14.01,2013-01-14 20:40:00,
2013-01-14 14:42:00,52.2,33.6,30.11,NE,47,7.0,8.0,49,0.00,,SKC,0.00,VWS V14.01,2013-01-14 20:42:00,
2013-01-14 14:47:00,52.4,34.3,30.10,NE,40,4.0,7.0,50,0.00,,SKC,0.00,VWS V14.01,2013-01-14 20:47:00,
2013-01-14 14:50:00,52.4,34.3,30.11,NE,39,2.0,8.0,50,0.00,,SKC,0.00,VWS V14.01,2013-01-14 20:50:00,
2013-01-14 14:52:00,52.6,34.0,30.10,NNE,26,2.0,11.0,49,0.00,,SKC,0.00,VWS V14.01,2013-01-14 20:52:00,
2013-01-14 14:57:00,52.6,34.0,30.10,NNE,15,10.0,10.0,49,0.00,,SKC,0.00,VWS V14.01,2013-01-14 20:57:00,
2013-01-14 15:00:00,52.6,34.0,30.10,NE,36,4.0,11.0,49,0.00,,SKC,0.00,VWS V14.01,2013-01-14 21:00:00,
2013-01-14 15:02:00,52.5,33.9,30.10,NNE,13,4.0,13.0,49,0.00,,SKC,0.00,VWS V14.01,2013-01-14 21:02:00,
2013-01-14 15:07:00,52.4,33.8,30.10,NE,38,7.0,7.0,49,0.00,,SKC,0.00,VWS V14.01,2013-01-14 21:07:00,
2013-01-14 15:10:00,52.4,33.8,30.10,NE,40,6.0,13.0,49,0.00,,SKC,0.00,VWS V14.01,2013-01-14 21:10:00,
2013-01-14 15:12:00,52.6,34.0,30.10,NE,54,0.0,11.0,49,0.00,,SKC,0.00,VWS V14.01,2013-01-14 21:12:00,
2013-01-14 15:17:00,52.9,33.8,30.11,NNE,28,2.0,9.0,48,0.00,,SKC,0.00,VWS V14.01,2013-01-14 21:17:00,
2013-01-14 15:20:00,52.8,34.2,30.11,NNE,28,9.0,11.0,49,0.00,,SKC,0.00,VWS V14.01,2013-01-14 21:20:00,
2013-01-14 15:22:00,53.1,34.0,30.11,North,5,10.0,13.0,48,0.00,,SKC,0.00,VWS V14.01,2013-01-14 21:22:00,
2013-01-14 15:27:00,53.2,34.0,30.11,ENE,58,10.0,10.0,48,0.00,,SKC,0.00,VWS V14.01,2013-01-14 21:27:00,
2013-01-14 15:30:00,53.2,34.0,30.10,NE,56,0.0,13.0,48,0.00,,SKC,0.00,VWS V14.01,2013-01-14 21:30:00,
2013-01-14 15:32:00,53.2,34.0,30.10,NE,44,0.0,12.0,48,0.00,,SKC,0.00,VWS V14.01,2013-01-14 21:32:00,
2013-01-14 15:37:00,53.0,33.8,30.11,NE,44,10.0,10.0,48,0.00,,SKC,0.00,VWS V14.01,2013-01-14 21:37:00,
2013-01-14 15:40:00,53.0,33.8,30.10,NE,44,0.0,12.0,48,0.00,,SKC,0.00,VWS V14.01,2013-01-14 21:40:00,
2013-01-14 15:42:00,52.7,33.6,30.10,NE,46,5.0,12.0,48,0.00,,SKC,0.00,VWS V14.01,2013-01-14 21:42:00,
2013-01-14 15:47:00,52.5,33.9,30.10,NE,42,4.0,7.0,49,0.00,,SKC,0.00,VWS V14.01,2013-01-14 21:47:00,
2013-01-14 15:50:00,52.5,33.9,30.10,NE,42,5.0,12.0,49,0.00,,SKC,0.00,VWS V14.01,2013-01-14 21:50:00,
2013-01-14 15:52:00,52.5,33.9,30.10,NE,51,11.0,11.0,49,0.00,,SKC,0.00,VWS V14.01,2013-01-14 21:52:00,
2013-01-14 15:57:00,52.4,33.8,30.11,NNE,29,3.0,3.0,49,0.00,,SKC,0.00,VWS V14.01,2013-01-14 21:57:00,
2013-01-14 16:00:00,52.4,33.8,30.11,NNE,29,1.0,11.0,49,0.00,,SKC,0.00,VWS V14.01,2013-01-14 22:00:00,
2013-01-14 16:02:00,52.2,33.6,30.11,NE,35,3.0,11.0,49,0.00,,SKC,0.00,VWS V14.01,2013-01-14 22:02:00,
2013-01-14 16:07:00,51.8,33.8,30.11,NNE,32,3.0,7.0,50,0.00,,SKC,0.00,VWS V14.01,2013-01-14 22:07:00,
2013-01-14 16:10:00,51.9,33.9,30.11,NNE,28,4.0,12.0,50,0.00,,SKC,0.00,VWS V14.01,2013-01-14 22:10:00,
2013-01-14 16:12:00,51.6,33.6,30.12,NE,43,10.0,10.0,50,0.00,,SKC,0.00,VWS V14.01,2013-01-14 22:12:00,
2013-01-14 16:17:00,51.4,33.4,30.12,NNE,26,2.0,3.0,50,0.00,,SKC,0.00,VWS V14.01,2013-01-14 22:17:00,
2013-01-14 16:20:00,51.4,33.4,30.11,NNE,25,2.0,13.0,50,0.00,,SKC,0.00,VWS V14.01,2013-01-14 22:20:00,
2013-01-14 16:22:00,51.2,33.2,30.12,NE,53,4.0,11.0,50,0.00,,SKC,0.00,VWS V14.01,2013-01-14 22:22:00,
2013-01-14 16:27:00,50.6,33.2,30.12,NE,56,3.0,11.0,51,0.00,,SKC,0.00,VWS V14.01,2013-01-14 22:27:00,
2013-01-14 16:30:00,50.6,33.2,30.12,NE,41,7.0,12.0,51,0.00,,SKC,0.00,VWS V14.01,2013-01-14 22:30:00,
2013-01-14 16:32:00,50.2,33.3,30.12,NE,41,5.0,11.0,52,0.00,,SKC,0.00,VWS V14.01,2013-01-14 22:32:00,
2013-01-14 16:37:00,49.9,33.5,30.12,NE,44,6.0,8.0,53,0.00,,SKC,0.00,VWS V14.01,2013-01-14 22:37:00,
2013-01-14 16:40:00,50.0,33.6,30.12,NE,42,8.0,11.0,53,0.00,,SKC,0.00,VWS V14.01,2013-01-14 22:40:00,
2013-01-14 16:42:00,49.6,33.2,30.12,ENE,59,5.0,10.0,53,0.00,,SKC,0.00,VWS V14.01,2013-01-14 22:42:00,
2013-01-14 16:47:00,49.3,33.4,30.12,NE,46,3.0,8.0,54,0.00,,SKC,0.00,VWS V14.01,2013-01-14 22:47:00,
2013-01-14 16:50:00,49.3,33.4,30.12,NE,47,8.0,10.0,54,0.00,,SKC,0.00,VWS V14.01,2013-01-14 22:50:00,
2013-01-14 16:52:00,49.0,33.1,30.12,NE,45,6.0,10.0,54,0.00,,SKC,0.00,VWS V14.01,2013-01-14 22:52:00,
2013-01-14 16:57:00,48.8,32.9,30.13,NNE,22,7.0,7.0,54,0.00,,SKC,0.00,VWS V14.01,2013-01-14 22:57:00,
2013-01-14 17:00:00,48.9,33.0,30.12,NNE,27,5.0,16.0,54,0.00,,SKC,0.00,VWS V14.01,2013-01-14 23:00:00,
2013-01-14 17:02:00,48.6,33.2,30.13,NE,46,3.0,11.0,55,0.00,,SKC,0.00,VWS V14.01,2013-01-14 23:02:00,
2013-01-14 17:07:00,48.4,33.4,30.13,NE,46,5.0,5.0,56,0.00,,SKC,0.00,VWS V14.01,2013-01-14 23:07:00,
2013-01-14 17:10:00,48.3,33.3,30.13,NE,46,0.0,11.0,56,0.00,,SKC,0.00,VWS V14.01,2013-01-14 23:10:00,
2013-01-14 17:12:00,48.2,33.3,30.13,ENE,71,3.0,11.0,56,0.00,,SKC,0.00,VWS V14.01,2013-01-14 23:12:00,
2013-01-14 17:17:00,48.1,33.6,30.13,ENE,57,4.0,4.0,57,0.00,,SKC,0.00,VWS V14.01,2013-01-14 23:17:00,
2013-01-14 17:20:00,48.1,33.6,30.13,ENE,57,0.0,11.0,57,0.00,,SKC,0.00,VWS V14.01,2013-01-14 23:20:00,
2013-01-14 17:22:00,47.9,33.0,30.14,NNE,32,5.0,13.0,56,0.00,,SKC,0.00,VWS V14.01,2013-01-14 23:22:00,
2013-01-14 17:27:00,47.7,33.2,30.13,NE,37,7.0,7.0,57,0.00,,SKC,0.00,VWS V14.01,2013-01-14 23:27:00,
2013-01-14 17:30:00,47.7,32.8,30.13,NE,40,0.0,13.0,56,0.00,,SKC,0.00,VWS V14.01,2013-01-14 23:30:00,
2013-01-14 17:32:00,47.5,33.0,30.14,NE,49,4.0,11.0,57,0.00,,SKC,0.00,VWS V14.01,2013-01-14 23:32:00,
2013-01-14 17:37:00,47.3,32.8,30.14,NE,44,0.0,0.0,57,0.00,,SKC,0.00,VWS V14.01,2013-01-14 23:37:00,
2013-01-14 17:40:00,47.3,32.8,30.14,NE,44,0.0,11.0,57,0.00,,SKC,0.00,VWS V14.01,2013-01-14 23:40:00,
2013-01-14 17:42:00,47.1,33.1,30.14,NE,41,0.0,9.0,58,0.00,,SKC,0.00,VWS V14.01,2013-01-14 23:42:00,
2013-01-14 17:47:00,46.9,32.9,30.13,NE,41,1.0,5.0,58,0.00,,SKC,0.00,VWS V14.01,2013-01-14 23:47:00,
2013-01-14 17:50:00,46.9,32.9,30.13,NE,40,4.0,10.0,58,0.00,,SKC,0.00,VWS V14.01,2013-01-14 23:50:00,
2013-01-14 17:52:00,46.7,33.2,30.14,NE,41,0.0,7.0,59,0.00,,SKC,0.00,VWS V14.01,2013-01-14 23:52:00,
2013-01-14 17:57:00,46.5,33.0,30.14,NE,42,0.0,3.0,59,0.00,,SKC,0.00,VWS V14.01,2013-01-14 23:57:00,
2013-01-14 18:00:00,46.5,33.0,30.13,NE,42,2.0,7.0,59,0.00,,SKC,0.00,VWS V14.01,2013-01-15 00:00:00,
2013-01-14 18:02:00,46.2,32.7,30.13,NE,42,2.0,8.0,59,0.00,,SKC,0.00,VWS V14.01,2013-01-15 00:02:00,
2013-01-14 18:07:00,45.9,32.8,30.14,NE,36,0.0,0.0,60,0.00,,SKC,0.00,VWS V14.01,2013-01-15 00:07:00,
2013-01-14 18:10:00,45.9,32.8,30.14,NE,36,0.0,10.0,60,0.00,,SKC,0.00,VWS V14.01,2013-01-15 00:10:00,
2013-01-14 18:12:00,45.7,32.6,30.14,NE,40,0.0,6.0,60,0.00,,SKC,0.00,VWS V14.01,2013-01-15 00:12:00,
2013-01-14 18:17:00,45.5,32.8,30.14,NE,40,0.0,0.0,61,0.00,,SKC,0.00,VWS V14.01,2013-01-15 00:17:00,
2013-01-14 18:20:00,45.5,32.8,30.14,NE,40,0.0,6.0,61,0.00,,SKC,0.00,VWS V14.01,2013-01-15 00:20:00,
2013-01-14 18:22:00,45.2,32.6,30.13,NE,40,0.0,7.0,61,0.00,,SKC,0.00,VWS V14.01,2013-01-15 00:22:00,
2013-01-14 18:27:00,45.0,32.8,30.14,NE,40,0.0,0.0,62,0.00,,SKC,0.00,VWS V14.01,2013-01-15 00:27:00,
2013-01-14 18:30:00,45.0,32.8,30.14,NE,40,0.0,7.0,62,0.00,,SKC,0.00,VWS V14.01,2013-01-15 00:30:00,
2013-01-14 18:32:00,44.9,32.7,30.14,NE,40,7.0,7.0,62,0.00,,SKC,0.00,VWS V14.01,2013-01-15 00:32:00,
2013-01-14 18:37:00,44.7,32.9,30.13,NE,40,0.0,1.0,63,0.00,,SKC,0.00,VWS V14.01,2013-01-15 00:37:00,
2013-01-14 18:40:00,44.7,32.9,30.13,NE,40,0.0,7.0,63,0.00,,SKC,0.00,VWS V14.01,2013-01-15 00:40:00,
2013-01-14 18:42:00,44.5,32.7,30.14,NE,42,0.0,8.0,63,0.00,,SKC,0.00,VWS V14.01,2013-01-15 00:42:00,
2013-01-14 18:47:00,44.3,32.9,30.14,NE,42,0.0,0.0,64,0.00,,SKC,0.00,VWS V14.01,2013-01-15 00:47:00,
2013-01-14 18:50:00,44.3,32.9,30.14,NE,42,0.0,8.0,64,0.00,,SKC,0.00,VWS V14.01,2013-01-15 00:50:00,
2013-01-14 18:52:00,44.1,32.7,30.14,NE,42,2.0,5.0,64,0.00,,SKC,0.00,VWS V14.01,2013-01-15 00:52:00,
2013-01-14 18:57:00,44.0,32.6,30.13,NE,42,0.0,0.0,64,0.00,,SKC,0.00,VWS V14.01,2013-01-15 00:57:00,
2013-01-14 19:00:00,44.0,32.6,30.13,NE,42,0.0,7.0,64,0.00,,SKC,0.00,VWS V14.01,2013-01-15 01:00:00,
2013-01-14 19:02:00,43.8,32.8,30.13,NE,42,0.0,6.0,65,0.00,,SKC,0.00,VWS V14.01,2013-01-15 01:02:00,
2013-01-14 19:07:00,43.6,32.6,30.14,NE,42,0.0,0.0,65,0.00,,SKC,0.00,VWS V14.01,2013-01-15 01:07:00,
2013-01-14 19:10:00,43.6,32.6,30.13,NE,42,0.0,6.0,65,0.00,,SKC,0.00,VWS V14.01,2013-01-15 01:10:00,
2013-01-14 19:12:00,43.4,32.8,30.13,NE,42,0.0,6.0,66,0.00,,SKC,0.00,VWS V14.01,2013-01-15 01:12:00,
2013-01-14 19:17:00,43.3,32.7,30.14,NE,42,0.0,0.0,66,0.00,,SKC,0.00,VWS V14.01,2013-01-15 01:17:00,
2013-01-14 19:20:00,43.3,32.7,30.14,NE,42,0.0,6.0,66,0.00,,SKC,0.00,VWS V14.01,2013-01-15 01:20:00,
2013-01-14 19:22:00,43.1,32.5,30.14,NE,38,0.0,8.0,66,0.00,,SKC,0.00,VWS V14.01,2013-01-15 01:22:00,
2013-01-14 19:27:00,43.0,32.8,30.14,NE,41,0.0,0.0,67,0.00,,SKC,0.00,VWS V14.01,2013-01-15 01:27:00,
2013-01-14 19:30:00,43.0,32.8,30.14,NE,41,0.0,8.0,67,0.00,,SKC,0.00,VWS V14.01,2013-01-15 01:30:00,
2013-01-14 19:32:00,42.9,32.7,30.14,NE,42,3.0,8.0,67,0.00,,SKC,0.00,VWS V14.01,2013-01-15 01:32:00,
2013-01-14 19:37:00,42.8,32.6,30.14,NE,42,0.0,0.0,67,0.00,,SKC,0.00,VWS V14.01,2013-01-15 01:37:00,
2013-01-14 19:40:00,42.8,32.6,30.14,NE,42,0.0,8.0,67,0.00,,SKC,0.00,VWS V14.01,2013-01-15 01:40:00,
2013-01-14 19:42:00,42.7,32.9,30.14,NE,42,2.0,3.0,68,0.00,,SKC,0.00,VWS V14.01,2013-01-15 01:42:00,
2013-01-14 19:47:00,42.6,32.8,30.14,NE,40,0.0,0.0,68,0.00,,SKC,0.00,VWS V14.01,2013-01-15 01:47:00,
2013-01-14 19:50:00,42.6,32.8,30.14,NE,40,0.0,9.0,68,0.00,,SKC,0.00,VWS V14.01,2013-01-15 01:50:00,
2013-01-14 19:52:00,42.5,32.7,30.14,NE,38,0.0,7.0,68,0.00,,SKC,0.00,VWS V14.01,2013-01-15 01:52:00,
2013-01-14 19:57:00,42.5,33.1,30.14,NE,42,7.0,7.0,69,0.00,,SKC,0.00,VWS V14.01,2013-01-15 01:57:00,
2013-01-14 20:00:00,42.5,33.1,30.14,NE,41,5.0,8.0,69,0.00,,SKC,0.00,VWS V14.01,2013-01-15 02:00:00,
2013-01-14 20:02:00,42.6,32.8,30.14,NE,38,4.0,8.0,68,0.00,,SKC,0.00,VWS V14.01,2013-01-15 02:02:00,
2013-01-14 20:07:00,42.7,32.9,30.14,NE,39,2.0,3.0,68,0.00,,SKC,0.00,VWS V14.01,2013-01-15 02:07:00,
2013-01-14 20:10:00,42.7,32.9,30.14,NE,39,1.0,8.0,68,0.00,,SKC,0.00,VWS V14.01,2013-01-15 02:10:00,
2013-01-14 20:12:00,42.8,33.0,30.14,NE,38,0.0,9.0,68,0.00,,SKC,0.00,VWS V14.01,2013-01-15 02:12:00,
2013-01-14 20:17:00,42.9,33.1,30.14,NE,38,0.0,0.0,68,0.00,,SKC,0.00,VWS V14.01,2013-01-15 02:17:00,
2013-01-14 20:20:00,42.9,33.1,30.14,NE,38,0.0,9.0,68,0.00,,SKC,0.00,VWS V14.01,2013-01-15 02:20:00,
2013-01-14 20:22:00,43.1,33.3,30.14,NE,37,0.0,7.0,68,0.00,,SKC,0.00,VWS V14.01,2013-01-15 02:22:00,
2013-01-14 20:27:00,43.2,33.4,30.14,NE,38,0.0,2.0,68,0.00,,SKC,0.00,VWS V14.01,2013-01-15 02:27:00,
2013-01-14 20:30:00,43.2,33.4,30.14,NE,38,2.0,7.0,68,0.00,,SKC,0.00,VWS V14.01,2013-01-15 02:30:00,
2013-01-14 20:32:00,43.2,33.4,30.14,NE,38,0.0,7.0,68,0.00,,SKC,0.00,VWS V14.01,2013-01-15 02:32:00,
2013-01-14 20:37:00,43.3,33.5,30.14,NE,38,0.0,7.0,68,0.00,,SKC,0.00,VWS V14.01,2013-01-15 02:37:00,
2013-01-14 20:40:00,43.3,33.5,30.14,NE,38,0.0,7.0,68,0.00,,SKC,0.00,VWS V14.01,2013-01-15 02:40:00,
2013-01-14 20:42:00,43.3,33.1,30.14,NE,44,0.0,11.0,67,0.00,,SKC,0.00,VWS V14.01,2013-01-15 02:42:00,
2013-01-14 20:47:00,43.4,33.2,30.14,NE,42,5.0,11.0,67,0.00,,SKC,0.00,VWS V14.01,2013-01-15 02:47:00,
2013-01-14 20:50:00,43.4,33.2,30.14,NE,42,5.0,11.0,67,0.00,,SKC,0.00,VWS V14.01,2013-01-15 02:50:00,
2013-01-14 20:52:00,43.4,33.2,30.14,NE,42,1.0,8.0,67,0.00,,SKC,0.00,VWS V14.01,2013-01-15 02:52:00,
2013-01-14 20:57:00,43.4,33.2,30.14,NE,39,2.0,8.0,67,0.00,,SKC,0.00,VWS V14.01,2013-01-15 02:57:00,
2013-01-14 21:00:00,43.4,33.2,30.14,NE,39,2.0,8.0,67,0.00,,SKC,0.00,VWS V14.01,2013-01-15 03:00:00,
2013-01-14 21:02:00,43.4,33.2,30.14,NE,41,0.0,9.0,67,0.00,,SKC,0.00,VWS V14.01,2013-01-15 03:02:00,
2013-01-14 21:07:00,43.4,33.2,30.14,NNE,32,0.0,9.0,67,0.00,,SKC,0.00,VWS V14.01,2013-01-15 03:07:00,
2013-01-14 21:10:00,43.4,33.2,30.14,NNE,32,0.0,9.0,67,0.00,,SKC,0.00,VWS V14.01,2013-01-15 03:10:00,
2013-01-14 21:12:00,43.4,33.2,30.14,NNE,32,0.0,6.0,67,0.00,,SKC,0.00,VWS V14.01,2013-01-15 03:12:00,
2013-01-14 21:17:00,43.4,33.2,30.14,NNE,33,0.0,0.0,67,0.00,,SKC,0.00,VWS V14.01,2013-01-15 03:17:00,
2013-01-14 21:20:00,43.4,33.2,30.14,NNE,33,0.0,6.0,67,0.00,,SKC,0.00,VWS V14.01,2013-01-15 03:20:00,
2013-01-14 21:22:00,43.4,32.8,30.14,NNE,33,0.0,7.0,66,0.00,,SKC,0.00,VWS V14.01,2013-01-15 03:22:00,
2013-01-14 21:27:00,43.4,32.8,30.13,NNE,30,10.0,10.0,66,0.00,,SKC,0.00,VWS V14.01,2013-01-15 03:27:00,
2013-01-14 21:30:00,43.4,32.8,30.13,NNE,30,10.0,10.0,66,0.00,,SKC,0.00,VWS V14.01,2013-01-15 03:30:00,
2013-01-14 21:32:00,43.4,32.8,30.13,NNE,31,0.0,10.0,66,0.00,,SKC,0.00,VWS V14.01,2013-01-15 03:32:00,
2013-01-14 21:37:00,43.4,32.8,30.14,NE,34,0.0,10.0,66,0.00,,SKC,0.00,VWS V14.01,2013-01-15 03:37:00,
2013-01-14 21:40:00,43.4,32.8,30.14,NE,34,0.0,10.0,66,0.00,,SKC,0.00,VWS V14.01,2013-01-15 03:40:00,
2013-01-14 21:42:00,43.4,32.8,30.13,NNE,26,0.0,8.0,66,0.00,,SKC,0.00,VWS V14.01,2013-01-15 03:42:00,
2013-01-14 21:47:00,43.4,32.8,30.13,NNE,26,0.0,9.0,66,0.00,,SKC,0.00,VWS V14.01,2013-01-15 03:47:00,
2013-01-14 21:50:00,43.4,32.8,30.13,NNE,26,0.0,9.0,66,0.00,,SKC,0.00,VWS V14.01,2013-01-15 03:50:00,
2013-01-14 21:52:00,43.4,32.8,30.13,NNE,32,0.0,7.0,66,0.00,,SKC,0.00,VWS V14.01,2013-01-15 03:52:00,
2013-01-14 21:57:00,43.4,32.8,30.13,NE,36,0.0,7.0,66,0.00,,SKC,0.00,VWS V14.01,2013-01-15 03:57:00,
2013-01-14 22:00:00,43.4,32.8,30.13,NE,36,0.0,7.0,66,0.00,,SKC,0.00,VWS V14.01,2013-01-15 04:00:00,
2013-01-14 22:02:00,43.4,33.2,30.13,NE,35,0.0,4.0,67,0.00,,SKC,0.00,VWS V14.01,2013-01-15 04:02:00,
2013-01-14 22:07:00,43.4,33.2,30.13,NE,34,0.0,7.0,67,0.00,,SKC,0.00,VWS V14.01,2013-01-15 04:07:00,
2013-01-14 22:10:00,43.4,33.2,30.13,NE,34,0.0,7.0,67,0.00,,SKC,0.00,VWS V14.01,2013-01-15 04:10:00,
2013-01-14 22:12:00,43.4,33.2,30.13,NNE,28,0.0,8.0,67,0.00,,SKC,0.00,VWS V14.01,2013-01-15 04:12:00,
2013-01-14 22:17:00,43.4,33.2,30.12,NNE,28,5.0,8.0,67,0.00,,SKC,0.00,VWS V14.01,2013-01-15 04:17:00,
2013-01-14 22:20:00,43.4,33.2,30.12,NNE,28,5.0,8.0,67,0.00,,SKC,0.00,VWS V14.01,2013-01-15 04:20:00,
2013-01-14 22:22:00,43.4,33.2,30.11,NNE,33,3.0,8.0,67,0.00,,SKC,0.00,VWS V14.01,2013-01-15 04:22:00,
2013-01-14 22:27:00,43.4,33.2,30.11,NNE,29,0.0,8.0,67,0.00,,SKC,0.00,VWS V14.01,2013-01-15 04:27:00,
2013-01-14 22:30:00,43.4,33.2,30.11,NNE,29,0.0,8.0,67,0.00,,SKC,0.00,VWS V14.01,2013-01-15 04:30:00,
2013-01-14 22:32:00,43.4,33.2,30.11,NE,34,7.0,8.0,67,0.00,,SKC,0.00,VWS V14.01,2013-01-15 04:32:00,
2013-01-14 22:37:00,43.3,33.1,30.11,NE,35,4.0,9.0,67,0.00,,SKC,0.00,VWS V14.01,2013-01-15 04:37:00,
2013-01-14 22:40:00,43.3,33.1,30.11,NE,35,4.0,9.0,67,0.00,,SKC,0.00,VWS V14.01,2013-01-15 04:40:00,
2013-01-14 22:42:00,43.3,33.5,30.10,NE,40,0.0,7.0,68,0.00,,SKC,0.00,VWS V14.01,2013-01-15 04:42:00,
2013-01-14 22:47:00,43.2,33.7,30.10,NE,39,8.0,13.0,69,0.00,,SKC,0.00,VWS V14.01,2013-01-15 04:47:00,
2013-01-14 22:50:00,43.2,33.7,30.10,NE,38,8.0,13.0,69,0.00,,SKC,0.00,VWS V14.01,2013-01-15 04:50:00,
2013-01-14 22:52:00,43.2,33.7,30.10,NE,49,0.0,11.0,69,0.00,,SKC,0.00,VWS V14.01,2013-01-15 04:52:00,
2013-01-14 22:57:00,43.1,33.6,30.10,NE,36,0.0,11.0,69,0.00,,SKC,0.00,VWS V14.01,2013-01-15 04:57:00,
2013-01-14 23:00:00,43.1,33.6,30.10,NE,43,6.0,11.0,69,0.00,,SKC,0.00,VWS V14.01,2013-01-15 05:00:00,
2013-01-14 23:01:00,43.1,34.0,30.10,NE,45,4.0,11.0,70,0.00,,SKC,0.00,VWS V14.01,2013-01-15 05:01:00,
2013-01-14 23:06:00,43.0,33.9,30.10,NE,53,0.0,13.0,70,0.00,,SKC,0.00,VWS V14.01,2013-01-15 05:06:00,
2013-01-14 23:10:00,43.0,33.9,30.10,NE,53,4.0,13.0,70,0.00,,SKC,0.00,VWS V14.01,2013-01-15 05:10:00,
2013-01-14 23:11:00,42.9,33.8,30.10,NE,52,0.0,7.0,70,0.00,,SKC,0.00,VWS V14.01,2013-01-15 05:11:00,
2013-01-14 23:16:00,42.9,33.8,30.10,NE,46,0.0,11.0,70,0.00,,SKC,0.00,VWS V14.01,2013-01-15 05:16:00,
2013-01-14 23:20:00,42.9,33.8,30.10,NE,36,3.0,11.0,70,0.00,,SKC,0.00,VWS V14.01,2013-01-15 05:20:00,
2013-01-14 23:21:00,42.9,33.8,30.10,NNE,33,3.0,11.0,70,0.00,,SKC,0.00,VWS V14.01,2013-01-15 05:21:00,
2013-01-14 23:26:00,42.8,33.7,30.11,NE,44,0.0,11.0,70,0.00,,SKC,0.00,VWS V14.01,2013-01-15 05:26:00,
2013-01-14 23:30:00,42.8,34.1,30.11,NE,44,0.0,11.0,71,0.00,,SKC,0.00,VWS V14.01,2013-01-15 05:30:00,
2013-01-14 23:31:00,42.8,34.1,30.11,NE,44,0.0,5.0,71,0.00,,SKC,0.00,VWS V14.01,2013-01-15 05:31:00,
2013-01-14 23:36:00,42.7,34.0,30.11,NE,49,2.0,9.0,71,0.00,,SKC,0.00,VWS V14.01,2013-01-15 05:36:00,
2013-01-14 23:40:00,42.7,34.0,30.11,NE,49,5.0,9.0,71,0.00,,SKC,0.00,VWS V14.01,2013-01-15 05:40:00,
2013-01-14 23:41:00,42.7,34.0,30.11,NE,46,4.0,7.0,71,0.00,,SKC,0.00,VWS V14.01,2013-01-15 05:41:00,
2013-01-14 23:46:00,42.6,33.9,30.11,NE,44,0.0,9.0,71,0.00,,SKC,0.00,VWS V14.01,2013-01-15 05:46:00,
2013-01-14 23:50:00,42.6,33.9,30.11,NE,44,0.0,9.0,71,0.00,,SKC,0.00,VWS V14.01,2013-01-15 05:50:00,
2013-01-14 23:51:00,42.5,33.8,30.11,NE,44,4.0,5.0,71,0.00,,SKC,0.00,VWS V14.01,2013-01-15 05:51:00,
2013-01-14 23:56:00,42.5,33.8,30.11,NE,46,5.0,9.0,71,0.00,,SKC,0.00,VWS V14.01,2013-01-15 05:56:00,